Location: Unspecified
(0.0000°N, 0.0000°E)
Time: 15:37:45
(UTC+00:00)

Altair - Pass Details

Date: 19 March 2026
Orbit: 1502 x 1682 km, 47.2° (Epoch: 18 April)

Event Time Altitude Azimuth Distance (km) Brightness Sun altitude
Rises 18:15:40 0° 235° (SW) 4,891 11.2 -2.0°
Reaches altitude 10° 18:19:03 10° 241° (WSW) 3,883 10.8 -2.8°
Maximum altitude 18:28:14 44° 310° (NW) 2,112 8.8 -5.1°
Drops below altitude 10° 18:37:08 10° 19° (NNE) 3,740 9.3 -7.4°
Sets 18:40:22 0° 26° (NNE) 4,698 9.8 -8.2°
